Los Angeles Downtown, CA

11:56 PM PDT on June 28, 2017 (GMT -0700)
Los Angeles Downtown

Weather History for KCQT - March, 2012

Change the Weather History Date:

Friday, March 2, 2012

  Actual Average Record
Temperature  
Mean Temperature 59 °F 60 °F  
Max Temperature 71 °F 69 °F 87 °F (1994)
Min Temperature 46 °F 50 °F 35 °F (1896)
Degree Days  
Heating Degree Days 6 6  
Month to date heating degree days 15 12  
Since 1 July heating degree days 899 787  
Cooling Degree Days 0 1  
Month to date cooling degree days 0 2  
Year to date cooling degree days 12 25  
Growing Degree Days 8 (Base 50)    
Moisture  
Dew Point 37 °F    
Average Humidity 54    
Maximum Humidity 86    
Minimum Humidity 22    
Precipitation  
Precipitation 0.00 in 0.11 in 5.88 in (1938)
Month to date precipitation 0.00 0.22  
Year to date precipitation 1.46 7.14  
Since 1 July precipitation 5.22  
Sea Level Pressure  
Sea Level Pressure 30.15 in    
Wind  
Wind Speed 1 mph (SE)    
Max Wind Speed 9 mph    
Max Gust Speed 15 mph    
Visibility 10 miles    
Events      
T = Trace of Precipitation, MM = Missing Value Source: NWS Daily Summary

Daily Weather History Graph

Daily Weather History Graph

Search for Another Location

Airport or City:

Trip Planner

Search our weather history database for the weather conditions in past years. The results will help you decide how hot, cold, wet, or windy it might be!

Date:

Astronomy

Mar. 02, 2012 Rise Set
Actual Time 6:19 AM PST 5:50 PM PST
Civil Twilight 5:54 AM PST 6:15 PM PST
Nautical Twilight 5:25 AM PST 6:44 PM PST
Astronomical Twilight 4:56 AM PST 7:13 PM PST
Moon 12:19 PM PST (3/2) 2:01 AM PST (3/2)
Length of Visible Light 12h 21m
Length of Day
11h 30m
Waxing Gibbous, 67% of the Moon is Illuminated
Mar 2
Waxing Gibbous
Mar 8
Full
Mar 14
Last Quarter
Mar 22
New
Mar 30
First Quarter

Hourly Weather History & Observations

Time (PST) Temp. Dew Point Humidity Pressure Visibility Wind Dir Wind Speed Gust Speed Precip Events Conditions
12:47 AM 51.1 °F 44.1 °F 77% 30.09 in 10.0 mi Variable 3.5 mph - N/A   Clear
1:47 AM 51.1 °F 44.1 °F 77% 30.09 in 10.0 mi ESE 3.5 mph - N/A   Clear
2:47 AM 50.0 °F 44.1 °F 80% 30.09 in 10.0 mi Calm Calm - N/A   Clear
3:47 AM 48.0 °F 43.0 °F 83% 30.10 in 10.0 mi Calm Calm - N/A   Clear
4:47 AM 48.0 °F 43.0 °F 83% 30.10 in 10.0 mi Calm Calm - N/A   Clear
5:47 AM 46.9 °F 42.1 °F 83% 30.12 in 10.0 mi Calm Calm - N/A   Clear
6:47 AM 46.9 °F 43.0 °F 86% 30.12 in 10.0 mi Calm Calm - N/A   Clear
7:47 AM 52.0 °F 42.1 °F 69% 30.14 in 10.0 mi Calm Calm - N/A   Clear
8:47 AM 55.9 °F 42.1 °F 60% 30.15 in 10.0 mi SE 4.6 mph - N/A   Clear
9:47 AM 60.1 °F 42.1 °F 51% 30.17 in 10.0 mi Variable 4.6 mph - N/A   Clear
10:47 AM 64.0 °F 39.9 °F 41% 30.17 in 10.0 mi Variable 3.5 mph - N/A   Clear
11:47 AM 66.9 °F 35.1 °F 31% 30.16 in 10.0 mi Calm Calm - N/A   Clear
12:47 PM 70.0 °F 32.0 °F 25% 30.14 in 10.0 mi Calm Calm - N/A   Clear
1:47 PM 70.0 °F 28.9 °F 22% 30.13 in 10.0 mi Variable 3.5 mph - N/A   Clear
2:47 PM 70.0 °F 28.9 °F 22% 30.12 in 10.0 mi Calm Calm - N/A   Clear
3:47 PM 66.9 °F 30.0 °F 25% 30.12 in 10.0 mi Calm Calm - N/A   Clear
4:47 PM 66.9 °F 28.0 °F 23% 30.13 in 10.0 mi Calm Calm - N/A   Clear
5:47 PM 64.0 °F 30.0 °F 28% 30.14 in 10.0 mi Calm Calm - N/A   Clear
6:47 PM 61.0 °F 32.0 °F 34% 30.16 in 10.0 mi Calm Calm - N/A   Clear
7:47 PM 59.0 °F 34.0 °F 39% 30.18 in 10.0 mi Calm Calm - N/A   Clear
8:47 PM 57.0 °F 35.1 °F 44% 30.21 in 10.0 mi Calm Calm - N/A   Clear
9:47 PM 55.0 °F 36.0 °F 49% 30.24 in 10.0 mi Calm Calm - N/A   Clear
10:47 PM 54.0 °F 34.0 °F 47% 30.26 in 10.0 mi Calm Calm - N/A   Clear
11:47 PM 53.1 °F 33.1 °F 47% 30.26 in 10.0 mi Calm Calm - N/A   Clear